This is the latest recevied weather packets stored in our database for station/object NE8U. If no packets are shown the sender has not sent any weather packets the latest 10 day(s).
| Time | Temp. | Humidity | Pressure | Rain* | Wind** | Luminosity | Snow |
|---|---|---|---|---|---|---|---|
| 1777981437 | 13.89° C | 94% | 1012.4 hPa | 0 mm | - | 0 W/m² | - |
| 1777981134 | 13.89° C | 94% | 1012.6 hPa | 0 mm | - | 0 W/m² | - |
| 1777980830 | 13.89° C | 95% | 1012.7 hPa | 0 mm | - | 0 W/m² | - |
| 1777980526 | 13.89° C | 95% | 1012.8 hPa | 0 mm | - | 0 W/m² | - |
| 1777980224 | 13.89° C | 95% | 1012.8 hPa | 0 mm | - | 0 W/m² | - |
| 1777979919 | 13.89° C | 95% | 1012.7 hPa | 0 mm | - | 0 W/m² | - |
| 1777979615 | 13.89° C | 95% | 1012.6 hPa | 1.27 mm | - | 0 W/m² | - |
| 1777979311 | 13.89° C | 95% | 1012.6 hPa | 1.27 mm | - | 0 W/m² | - |
| 1777979009 | 13.89° C | 94% | 1012.9 hPa | 0 mm | - | 0 W/m² | - |
| 1777978705 | 13.89° C | 94% | 1013 hPa | 0 mm | - | 0 W/m² | - |
| 1777978401 | 13.89° C | 94% | 1013 hPa | 0 mm | - | 0 W/m² | - |
| 1777978097 | 13.89° C | 94% | 1012.8 hPa | 1.78 mm | - | 0 W/m² | - |
| 1777977795 | 13.89° C | 94% | 1013 hPa | 1.78 mm | - | 0 W/m² | - |
| 1777977491 | 13.89° C | 93% | 1013.1 hPa | 0 mm | - | 0 W/m² | - |
| 1777977189 | 13.89° C | 93% | 1012.9 hPa | 0 mm | - | 0 W/m² | - |
| 1777976886 | 13.89° C | 93% | 1013.1 hPa | 0 mm | - | 0 W/m² | - |
| 1777976584 | 13.89° C | 93% | 1013 hPa | 1.27 mm | - | 0 W/m² | - |
| 1777976284 | 14.44° C | 93% | 1013.5 hPa | 3.05 mm | - | 0 W/m² | - |
| 1777975979 | 14.44° C | 93% | 1014.1 hPa | 1.78 mm | - | 0 W/m² | - |
| 1777975675 | 14.44° C | 92% | 1014.1 hPa | 0 mm | - | 0 W/m² | - |
| 1777975372 | 14.44° C | 93% | 1013.9 hPa | 0 mm | - | 0 W/m² | - |
| 1777975068 | 14.44° C | 93% | 1013.4 hPa | 0 mm | - | 0 W/m² | - |
| 1777974766 | 14.44° C | 94% | 1013.8 hPa | 0 mm | - | 0 W/m² | - |
| 1777974461 | 14.44° C | 94% | 1013.8 hPa | 0 mm | - | 0 W/m² | - |
| 1777974158 | 14.44° C | 95% | 1013.6 hPa | 0 mm | - | 0 W/m² | - |
* Rain latest hour (hover to see other rain measurements)
** Current wind speed in m/s (hover to see current wind gust speed)